Flag for China Weather past 2 weeks in Foochow, Fujian, China

Now
52 °F

Light rain. Fog.


Feels Like: 47 °F
Forecast: 50 / 75 °F
Wind: 15 mph from Northeast

Location: Fuzhou Airport

Current Time: Feb 27, 2015 at 8:57:04 AM

Latest Report: Feb 27, 2015 at 8:00 AM


Visibility: 2 mi

Pressure: 30.21 "Hg

Humidity: 88%

Dew point: 48 °F

Location of FoochowLocation

Historic Weather in Foochow — Graph

°F

Foochow temperature yesterday

Maximum temperature yesterday: 57 °F (at 12:00 PM)
Minimum temperature yesterday: 52 °F (at 9:00 PM)
Average temperature yesterday: 55 °F

Past Weeks' High & Low Weather Summary

 TemperatureHumidityPressure
High77 °F (Feb 16, 1:00 PM)100% (Feb 16, 4:00 AM)30.36 "Hg (Feb 16, 4:00 AM)
Low45 °F (Feb 12, 7:00 AM)18% (Feb 12, 12:00 PM)29.86 "Hg (Feb 25, 4:00 PM)
Average56 °F78%30.09 "Hg
* Reported Feb 12 7:00 AM — Feb 27 7:00 AM, Foochow, Weather by CustomWeather, © 2015

Note: Actual official high and low records may vary slightly from our data, if they occured in-between our weather recording intervals... More about our weather records

Advertising

Foochow weather history for previous 24 hours

 ConditionsComfort  
Time TempWeatherWind HumidityBarometerVisibility
7:00 AM
Fri, Feb 27
52 °FLight rain. Fog.20 mph94%30.18 "Hg1 mi
6:00 AM52 °FLight rain. Fog.15 mph88%30.18 "Hg3 mi
5:00 AM52 °FLight rain. Low clouds.15 mph94%30.15 "HgN/A
4:00 AM52 °FLight rain. Fog.13 mph94%30.15 "Hg2 mi
3:00 AM52 °FLight rain. Fog.15 mph94%30.15 "Hg1 mi
2:00 AM52 °FLight rain. Fog.8 mph94%30.15 "Hg1 mi
1:00 AM52 °FLight rain. Fog.13 mph94%30.15 "Hg1 mi
12:00 AM52 °FLight rain. Fog.15 mph94%30.15 "Hg1 mi
11:00 PM
Thu, Feb 26
52 °FLight rain. Fog.13 mph94%30.18 "Hg1 mi
10:00 PM52 °FLight rain. Fog.20 mph94%30.15 "Hg1 mi
9:00 PM52 °FLight rain. Fog.15 mph94%30.15 "Hg1 mi
8:00 PM54 °FLight rain. Low clouds.17 mph88%30.12 "Hg4 mi
7:00 PM54 °FMostly cloudy.17 mph88%30.09 "HgN/A
6:00 PM55 °FMostly cloudy.20 mph77%30.09 "HgN/A
5:00 PM55 °FMore clouds than sun.17 mph77%30.07 "HgN/A
4:00 PM55 °FMore clouds than sun.17 mph77%30.04 "HgN/A
3:00 PM55 °FMore clouds than sun.20 mph77%30.04 "HgN/A
2:00 PM57 °FMostly cloudy.17 mph72%30.04 "HgN/A
1:00 PM57 °FMostly cloudy.17 mph77%30.04 "HgN/A
12:00 PM57 °FMostly cloudy.13 mph82%30.07 "HgN/A
11:00 AM55 °FMostly cloudy.15 mph88%30.09 "HgN/A
10:00 AM55 °FMostly cloudy.15 mph88%30.09 "HgN/A
9:00 AM55 °FLight rain. Fog.13 mph94%30.09 "Hg2 mi
8:00 AM54 °FLight rain. Fog.17 mph100%30.07 "Hg1 mi
Weather by CustomWeather, © 2015

See weather overviewHow to use our weather pages